Погода в Заречном

Россия / Еврейская автономная область     48°57′43″N   130°46′22″E
темп.,
°C
ветер,
м/с
пор.,
м/с
влажн.,
%
обл.,
%
осадки,
мм/ч
давл.,
гПа
погр.,
м
20 января, ср
ср2001:00−28юв11860 0.0 102819
04:00−28вюв11860 0.0 102819
07:00−27вюв229058 0.0 102719
10:00−25вюв239155 0.0 102681
13:00−19вюв248170 0.0 1023274
16:00−16вюв487885 0.0 1019501
19:00−19юв41084100 0.0 1019347
22:00−20вюв3797100 1.2 1017290
21 января, чт
чт2101:00−20вюв2498100 1.2 1017209
04:00−21юв1199100 1.5 101820
07:00−21зсз3899100 0.1 1020322
10:00−24зсз4997100 0.2 1022384
13:00−24зсз478897 0.0 1023471
16:00−24зсз368473 0.0 1023464
19:00−29сз11940 0.0 102519
22:00−31зюз11950 0.0 102519
22 января, пт
пт2201:00−32зюз11970 0.0 102519
04:00−33зюз119815 0.0 102619
07:00−33зюз119945 0.0 102619
10:00−32зюз119967 0.0 102729
13:00−26з238798 0.0 1028365
16:00−24з238998 0.0 1028385
19:00−30з119881 0.0 103019
22:00−32ююз119963 0.0 103119
23 января, сб
сб2301:00−32в119724 0.0 103219
04:00−31в119112 0.0 103219
07:00−29вюв11830 0.0 103119
10:00−25вюв12770 0.0 103124
13:00−16вюв136750 0.0 1029287
16:00−13юв147275 0.0 1027451
19:00−18вюв2288100 0.0 102724
22:00−20вюв238961 0.0 102835
24 января, вс
вс2401:00−21вюв229052 0.0 102825
04:00−22вюв129028 0.0 102820
07:00−21вюв119067 0.0 102720
10:00−18ссв008683 0.0 102938
13:00−14зсз1379100 0.0 1028374
16:00−14зсз348696 0.0 1029514
19:00−20зсз229999 0.0 103127
22:00−22з1110099 0.1 103322